• Processing (Info)

  • MPEC 2016-Q47 : 2016 QY10

    The following Minor Planet Electronic Circular may be linked-to from your own Web pages, but must not otherwise be redistributed electronically.

    A form allowing access to any MPEC is at the bottom of this page.


    Read MPEC 2016-Q46 Read MPEC 2016-Q48


    M.P.E.C. 2016-Q47                                Issued 2016 Aug. 29, 15:34 UT
    
         The Minor Planet Electronic Circulars contain information on unusual
             minor planets and routine data on comets.  They are published
        on behalf of Division F of the International Astronomical Union by the
              Minor Planet Center, Smithsonian Astrophysical Observatory,
                              Cambridge, MA 02138, U.S.A.
    
                 Prepared using the Tamkin Foundation Computer Network
    
                                  MPC@CFA.HARVARD.EDU
                URL https://www.minorplanetcenter.net/    ISSN 1523-6714
    
                                       2016 QY10
    
    Observations:
         K16Q10Y* C2016 08 27.41573 22 53 39.572-15 50 47.76         20.8 wLEQ047F51
         K16Q10Y  C2016 08 27.42800 22 53 40.325-15 51 25.46         21.2 wLEQ047F51
         K16Q10Y  C2016 08 27.45254 22 53 41.838-15 52 40.71         20.8 wLEQ047F51
         K16Q10Y KC2016 08 28.43828 22 54 58.90 -16 43 26.2          20.3 RoEQ047291
         K16Q10Y KC2016 08 28.44017 22 54 59.02 -16 43 31.7          19.9 RoEQ047291
         K16Q10Y KC2016 08 28.44207 22 54 59.14 -16 43 37.8          20.5 RoEQ047291
         K16Q10Y HC2016 08 29.27514 22 56 09.32 -17 27 08.6          20.6 VoEQ047691
         K16Q10Y HC2016 08 29.29119 22 56 10.35 -17 27 58.9          21.0 VoEQ047691
         K16Q10Y HC2016 08 29.30718 22 56 11.42 -17 28 50.2          21.1 VoEQ047691
    
    Observer details:
    291 LPL/Spacewatch II.  Observer R. A. Mastaler.  1.8-m f/2.7 reflector + CCD.
    691 Steward Observatory, Kitt Peak.  Observer R. A. Mastaler.  0.9-m f/3
        reflector + CCD.
    F51 Pan-STARRS 1, Haleakala.  Observers B. Gibson, T. Goggia, N. Primak,
        A. Schultz, M. Willman.  Measurers K. Chambers, S. Chastel, L. Denneau,
        H. Flewelling, M. Huber, E. Lilly, E. Magnier, R. Wainscoat, C. Waters,
        R. Weryk.  1.8-m Ritchey-Chretien + CCD.
    
    Orbital elements:
    2016 QY10                                                Earth MOID = 0.1762 AU
    Epoch 2016 July 31.0 TT = JDT 2457600.5                 MPC
    M 318.49670              (2000.0)            P               Q
    n   0.52191098     Peri.  233.42569     +0.92883286     -0.35866391
    a   1.5278185      Node   147.29848     +0.37036227     +0.89201955
    e   0.2567895      Incl.    9.90101     +0.01006464     +0.27506605
    P   1.89           H   23.3           G   0.15           U   7
    Residuals in seconds of arc
    160827 F51  0.0   0.0     160828 291  0.1+  0.1-    160829 691  0.1+  0.2-
    160827 F51  0.0   0.0     160828 291  0.0   0.2+    160829 691  0.2-  0.4+
    160827 F51  0.0   0.0     160828 291  0.1-  0.1-    160829 691  0.1+  0.3-
    
    Ephemeris:
    2016 QY10                a,e,i = 1.53, 0.26, 10                  q = 1.1355
    Date    TT    R. A. (2000) Decl.     Delta      r     Elong.  Phase     V
    2016 07 30    22 20 48.9 -00 08 47   0.3171  1.2968   148.7    24.0    22.5
    ...
    2016 08 14    22 37 25.0 -06 13 06   0.2441  1.2480   162.7    14.0    21.5
    ...
    2016 08 22    22 46 46.8 -11 29 57   0.2159  1.2244   169.8     8.5    21.0
    ...
    2016 08 28    22 54 25.3 -16 20 15   0.2002  1.2081   170.6     7.9    20.8
    2016 08 29    22 55 46.0 -17 12 08   0.1981  1.2055   170.1     8.3    20.8
    2016 08 30    22 57 08.0 -18 04 48   0.1961  1.2029   169.4     8.9    20.8
    ...
    2016 09 05    23 05 56.3 -23 31 17   0.1869  1.1884   163.1    14.3    20.8
    ...
    2016 09 13    23 19 40.1 -30 41 32   0.1820  1.1713   153.1    22.9    21.0
    ...
    2016 09 28    23 52 00.3 -41 01 29   0.1904  1.1477   136.5    36.9    21.5
    
    A. U. Tomatic                (C) Copyright 2016 MPC           M.P.E.C. 2016-Q47
    

    Read MPEC 2016-Q46 Read MPEC 2016-Q48


    MPEC number:

    Enter an MPEC number in one of the following forms:

    • 1997-B01 (the full form)
    • J97B01 (the packed version of the full form)
    • B01 (the abbreviated form)